Home   Weather   Kemi   Past weeks

Flag for Finland Past Weather in Kemi, Finland — Yesterday and Last 2 Weeks

41 °F


Feels Like: 36 °F
Forecast: 33 / 40 °F
Wind: 7 mph from South

Location: Kemi Airport

Current Time: Oct 21, 2016 at 2:12:02 PM

Latest Report: Oct 21, 2016 at 1:20 PM

Visibility: N/A

Pressure: 30.63 "Hg

Humidity: 81%

Dew Point: 36 °F

Location of KemiLocation

Past Weather in Kemi — Graph


Kemi Temperature Yesterday

Maximum temperature yesterday: 45 °F (at 12:20 AM)
Minimum temperature yesterday: 39 °F (at 7:50 PM)
Average temperature yesterday: 42 °F

High & Low Weather Summary for the Past Weeks

High48 °F (Oct 6, 3:50 PM)100% (Oct 6, 6:20 PM)30.80 "Hg (Oct 6, 6:20 PM)
Low25 °F (Oct 13, 1:50 AM)62% (Oct 7, 3:50 PM)30.24 "Hg (Oct 18, 3:20 PM)
Average39 °F89%30.54 "Hg
* Reported Oct 6 12:20 PM — Oct 21 12:50 PM, Kemi, Weather by CustomWeather, © 2016

Note: Actual official high and low records may vary slightly from our data, if they occured in-between our weather recording intervals... More about our weather records


Kemi Weather History for the Previous 24 Hours

Scroll right to see more
Time TempWeatherWind HumidityBarometerVisibility
12:50 PM
Fri, Oct 21
41 °FOvercast.7 mph81%30.63 "HgN/A
12:20 PM41 °FOvercast.2 mph93%30.63 "HgN/A
11:50 AM39 °FOvercast.2 mph93%30.60 "HgN/A
11:20 AM39 °FOvercast.5 mph93%30.60 "HgN/A
10:50 AM39 °FOvercast.5 mph93%30.60 "HgN/A
10:20 AM37 °FOvercast.6 mph100%30.60 "HgN/A
9:50 AM37 °FOvercast.7 mph100%30.60 "Hg5 mi
9:20 AM37 °FDrizzle. Overcast.7 mph100%30.60 "Hg4 mi
8:50 AM37 °FLight rain. Mostly cloudy.7 mph100%30.60 "Hg3 mi
8:20 AM37 °FLight rain. Overcast.6 mph100%30.60 "Hg4 mi
7:50 AM37 °FOvercast.5 mph100%30.57 "Hg4 mi
7:20 AM37 °FOvercast.2 mph100%30.57 "HgN/A
6:50 AM37 °FMostly cloudy.2 mph100%30.57 "HgN/A
6:20 AM37 °FMostly cloudy.1 mph100%30.57 "HgN/A
5:50 AM37 °FMostly cloudy.3 mph100%30.57 "Hg6 mi
5:20 AM37 °FOvercast.5 mph100%30.57 "Hg6 mi
4:50 AM37 °FOvercast.3 mph100%30.57 "Hg5 mi
4:20 AM37 °FOvercast.2 mph100%30.57 "Hg5 mi
3:50 AM37 °FOvercast.3 mph100%30.57 "Hg4 mi
3:20 AM37 °FMostly cloudy.2 mph100%30.57 "Hg5 mi
2:50 AM39 °FMostly cloudy.2 mph93%30.57 "Hg6 mi
2:20 AM39 °FMostly cloudy.3 mph100%30.57 "Hg5 mi
1:50 AM39 °FSprinkles. Low clouds.5 mph100%30.57 "Hg5 mi
1:20 AM39 °FSprinkles. Overcast.2 mph100%30.57 "HgN/A
12:50 AM39 °FMostly cloudy.6 mph100%30.57 "Hg4 mi
12:20 AM39 °FLow clouds.5 mph93%30.57 "Hg6 mi
11:50 PM
Thu, Oct 20
39 °FOvercast.2 mph93%30.57 "HgN/A
11:20 PM39 °FOvercast.1 mph93%30.57 "HgN/A
10:50 PM39 °FOvercast.5 mph93%30.57 "HgN/A
10:20 PM39 °FOvercast.5 mph93%30.54 "HgN/A
9:50 PM39 °FMostly cloudy.5 mph93%30.54 "HgN/A
9:20 PM39 °FMostly cloudy.5 mph100%30.54 "HgN/A
8:50 PM39 °FOvercast.5 mph100%30.54 "Hg6 mi
8:20 PM39 °FLow clouds.2 mph100%30.54 "Hg4 mi
7:50 PM39 °FLow clouds.1 mph100%30.54 "Hg4 mi
7:20 PM41 °FMostly cloudy.3 mph93%30.54 "Hg5 mi
6:50 PM41 °FLight rain. Overcast.5 mph93%30.54 "Hg6 mi
6:20 PM41 °FLight rain. Overcast.6 mph93%30.54 "HgN/A
5:50 PM41 °FOvercast.7 mph93%30.54 "HgN/A
5:20 PM41 °FLight rain. Overcast.8 mph93%30.51 "HgN/A
4:50 PM41 °FLight rain. Overcast.7 mph100%30.51 "HgN/A
4:20 PM41 °FLight rain. Overcast.7 mph100%30.51 "Hg4 mi
3:50 PM41 °FRain. Overcast.6 mph100%30.51 "Hg5 mi
3:20 PM41 °FLight rain. Overcast.5 mph100%30.51 "Hg6 mi
2:50 PM43 °FRain. Overcast.5 mph93%30.51 "Hg3 mi
2:20 PM43 °FRain. Overcast.5 mph93%30.51 "Hg4 mi
Weather by CustomWeather, © 2016

See weather overviewHow to use our weather pages